Location: Newark
(49.9386°N, 3.5850°E)
Time: 17:01:31
(UTC+00:00)

N. Korean satellite - Visible Passes

Search period start: 28 January 2020 00:00
Search period end: 07 February 2020 00:00
Orbit: 454 x 507 km, 97.2° (Epoch: 28 January)

Date Brightness Start Highest point End Pass type
(mag) Time Alt. Az. Time Alt. Az. Time Alt. Az.
28 Jan 10.0 04:28:35 10° ENE 04:30:05 12° E 04:31:35 10° ESE visible
28 Jan 6.5 06:00:18 10° N 06:03:50 61° WNW 06:07:26 10° SSW visible
29 Jan 6.9 05:34:45 10° NNE 05:38:21 67° ESE 05:41:58 10° S visible
29 Jan 9.9 17:49:39 10° WSW 17:51:29 14° W 17:53:20 10° WNW visible
30 Jan 8.4 05:09:28 10° NNE 05:12:46 33° E 05:16:07 10° SSE visible
30 Jan 7.8 06:43:11 10° NNW 06:46:01 22° WNW 06:48:50 10° WSW visible
30 Jan 9.1 17:22:51 10° SSW 17:25:45 25° W 17:28:43 10° NW visible
31 Jan 9.5 04:44:30 10° NE 04:47:06 18° E 04:49:43 10° SE visible
31 Jan 7.0 06:17:15 10° N 06:20:39 39° WNW 06:24:05 10° SW visible
01 Feb 6.5 05:51:35 10° N 05:55:13 77° WNW 05:58:53 10° SSW visible
02 Feb 7.4 05:26:07 10° NNE 05:29:41 53° E 05:33:17 10° S visible
02 Feb 9.7 17:40:24 10° SW 17:42:44 17° W 17:45:06 10° NW visible
03 Feb 8.8 05:00:54 10° NE 05:04:04 28° E 05:07:17 10° SSE visible
03 Feb 7.6 06:34:19 10° N 06:37:24 26° WNW 06:40:31 10° SW visible
03 Feb 8.7 17:13:54 10° SSW 17:17:02 32° W 17:20:12 10° NNW visible
04 Feb 9.8 04:36:08 10° NE 04:38:23 15° E 04:40:38 10° SE visible
04 Feb 6.8 06:08:29 10° N 06:12:01 48° WNW 06:15:35 10° SSW visible
05 Feb 6.6 05:42:52 10° NNE 05:46:33 85° ESE 05:50:15 10° SSW visible
05 Feb 10.2 17:58:35 10° WSW 17:59:43 11° W 18:00:52 10° WNW visible
06 Feb 7.9 05:17:28 10° NNE 05:21:00 42° E 05:24:32 10° S visible
06 Feb 9.6 17:31:16 10° SW 17:33:57 21° W 17:36:42 10° NW visible
